Date String (YYYY-MM-DD hh:mm:ss) UTC,Instrument flags,absolute air pressure of the measurement (hPa),sample flow rate (lpm),inlet stack bypass flow (lpm),air temperature of the measurement (°C),ambient temperature measured by the external sensor (°C),aerosol sample conditioner tube jacket temperature (°C),OPC LED temperature (°C),internal box temperature (°C),relative humidity of the measurement (%),span deviation,mass concentration of particles derived from Lorenz-Mie calculation of OPC scattering (μg/m³),mass concentration of particles derived from Lorenz-Mie calculation of OPC scattering (μg/m³),mass concentration of particles derived from Lorenz-Mie calculation of OPC scattering (μg/m³)
DateTimeUTC,F1_M11,P_M11,Q1_M11,Q2_M11,T1_M11,T2_M11,T3_M11,T4_M11,T5_M11,U1_M11,ZSPAN_M11,X0_M11,X2_M11,X1_M11
2024-03-14 15:00:00,SystemResetWarning,0830.9,4.99,000.00,018.8,019.0,000.0,027.3,021.1,23.6,0000.0,0006.58,0003.48,0003.18
2024-03-14 15:01:00,SystemResetWarning,0830.9,5.01,000.00,018.8,018.8,000.0,027.2,020.9,23.5,0000.0,0007.36,0003.51,0003.20
2024-03-14 15:02:00,SystemResetWarning,0830.9,5.01,000.00,018.8,018.5,000.0,027.2,020.6,23.5,0000.0,0007.52,0003.57,0003.22
2024-03-14 15:03:00,SystemResetWarning,0830.9,5.00,000.00,018.7,018.2,000.0,027.2,020.4,23.6,0000.0,0007.52,0003.58,0003.23
2024-03-14 15:04:00,SystemResetWarning,0830.9,4.99,000.00,018.6,018.0,000.0,027.2,020.3,23.6,0000.0,0007.56,0003.60,0003.25
2024-03-14 15:05:00,SystemResetWarning,0831.0,4.99,000.00,018.6,017.8,000.0,027.1,020.1,23.7,0000.0,0007.77,0003.63,0003.26
2024-03-14 15:06:00,SystemResetWarning,0830.9,5.00,000.00,018.5,017.6,000.0,027.1,020.0,23.8,0000.0,0008.26,0003.67,0003.27
2024-03-14 15:07:00,SystemResetWarning,0830.9,5.00,000.00,018.4,017.5,000.0,027.1,020.0,23.9,0000.0,0008.17,0003.68,0003.28
2024-03-14 15:08:00,SystemResetWarning,0830.9,5.01,000.00,018.4,017.3,000.0,027.1,020.0,24.0,0000.0,0008.37,0003.67,0003.29
2024-03-14 15:09:00,SystemResetWarning,0830.9,5.01,000.00,018.4,017.2,000.0,027.1,020.0,24.0,0000.0,0008.94,0003.68,0003.29
2024-03-14 15:10:00,SystemResetWarning,0830.9,5.01,000.00,018.3,017.1,000.0,027.1,020.0,24.0,0000.0,0009.51,0003.72,0003.31
2024-03-14 15:11:00,SystemResetWarning,0830.9,5.00,000.00,018.3,017.0,000.0,027.1,020.0,24.0,0000.0,0009.60,0003.76,0003.32
2024-03-14 15:12:00,SystemResetWarning,0830.9,4.99,000.00,018.3,016.9,000.0,027.1,020.0,24.0,0000.0,0009.51,0003.76,0003.32
2024-03-14 15:13:00,SystemResetWarning,0830.9,4.99,000.00,018.3,016.8,000.0,027.1,020.0,23.9,0000.0,0009.32,0003.73,0003.33
2024-03-14 15:14:00,SystemResetWarning,0830.9,5.00,000.00,018.3,016.8,000.0,027.1,020.0,23.9,0000.0,0009.27,0003.74,0003.33
2024-03-14 15:15:00,SystemResetWarning,0830.9,5.01,000.00,018.2,016.8,000.0,027.1,020.0,23.9,0000.0,0009.30,0003.76,0003.35
2024-03-14 15:16:00,SystemResetWarning,0830.9,5.01,000.00,018.3,017.1,000.0,027.2,020.2,23.8,0000.0,0009.25,0003.75,0003.36
2024-03-14 15:17:00,SystemResetWarning,0830.9,4.99,000.00,018.5,018.2,000.0,027.2,020.7,23.5,0000.0,0008.66,0003.76,0003.37
2024-03-14 15:18:00,SystemResetWarning,0830.9,4.99,000.00,018.7,018.9,000.0,027.2,021.1,23.1,0000.0,0008.75,0003.81,0003.38
2024-03-14 15:19:00,SystemResetWarning,0830.9,4.99,000.00,018.8,018.7,000.0,027.2,020.9,23.0,0000.0,0008.65,0003.83,0003.38
2024-03-14 15:20:00,SystemResetWarning,0830.9,5.01,000.00,018.7,018.5,000.0,027.2,020.6,23.0,0000.0,0008.23,0003.88,0003.40
2024-03-14 15:21:00,SystemResetWarning,0830.8,5.00,000.00,018.7,018.2,000.0,027.1,020.4,22.9,0000.0,0007.65,0003.90,0003.40
2024-03-14 15:22:00,SystemResetWarning,0830.9,5.00,000.00,018.6,018.0,000.0,027.1,020.2,22.8,0000.0,0007.59,0003.94,0003.42
2024-03-14 15:23:00,SystemResetWarning,0830.9,5.00,000.00,018.5,017.8,000.0,027.1,020.1,22.8,0000.0,0007.09,0003.95,0003.44
2024-03-14 15:24:00,SystemResetWarning,0830.8,5.00,000.00,018.5,017.6,000.0,027.1,020.0,22.9,0000.0,0007.27,0003.99,0003.46
2024-03-14 15:25:00,SystemResetWarning,0830.8,5.01,000.00,018.4,017.5,000.0,027.1,020.0,22.8,0000.0,0007.93,0004.01,0003.48
2024-03-14 15:26:00,SystemResetWarning,0830.8,5.01,000.00,018.4,017.3,000.0,027.1,020.0,22.7,0000.0,0007.97,0004.01,0003.50
2024-03-14 15:27:00,SystemResetWarning,0830.9,5.00,000.00,018.3,017.2,000.0,027.1,020.0,22.8,0000.0,0007.99,0004.03,0003.51
2024-03-14 15:28:00,SystemResetWarning,0830.9,4.99,000.00,018.3,017.1,000.0,027.1,020.0,22.9,0000.0,0007.93,0004.04,0003.54
2024-03-14 15:29:00,SystemResetWarning,0830.9,4.99,000.00,018.3,017.0,000.0,027.1,020.0,22.8,0000.0,0007.96,0004.06,0003.57
2024-03-14 15:30:00,SystemResetWarning,0830.9,4.99,000.00,018.3,016.9,000.0,027.1,020.0,22.8,0000.0,0007.97,0004.09,0003.60
2024-03-14 15:31:00,SystemResetWarning,0830.9,5.00,000.00,018.3,016.8,000.0,027.1,020.0,22.7,0000.0,0007.90,0004.09,0003.62
2024-03-14 15:32:00,SystemResetWarning,0830.9,5.00,000.00,018.2,016.8,000.0,027.1,020.0,22.8,0000.0,0007.97,0004.09,0003.64
2024-03-14 15:33:00,SystemResetWarning,0830.9,5.01,000.00,018.3,017.1,000.0,027.1,020.2,22.8,0000.0,0008.38,0004.08,0003.66
2024-03-14 15:34:00,SystemResetWarning,0830.9,5.01,000.00,018.5,018.2,000.0,027.2,020.7,22.6,0000.0,0008.46,0004.09,0003.67
2024-03-14 15:35:00,SystemResetWarning,0831.0,4.98,000.00,018.7,018.9,000.0,027.2,021.1,22.3,0000.0,0008.58,0004.13,0003.68
2024-03-14 15:36:00,SystemResetWarning,0830.9,5.00,000.00,018.8,018.8,000.0,027.2,020.9,22.2,0000.0,0008.17,0004.16,0003.69
2024-03-14 15:37:00,SystemResetWarning,0831.0,5.01,000.00,018.7,018.5,000.0,027.2,020.6,22.2,0000.0,0008.17,0004.20,0003.70
2024-03-14 15:38:00,SystemResetWarning,0830.9,5.01,000.00,018.7,018.3,000.0,027.1,020.5,22.2,0000.0,0008.22,0004.24,0003.71
2024-03-14 15:39:00,SystemResetWarning,0831.0,5.00,000.00,018.6,018.0,000.0,027.1,020.3,22.3,0000.0,0008.31,0004.27,0003.72
2024-03-14 15:40:00,SystemResetWarning,0831.0,4.99,000.00,018.6,017.8,000.0,027.1,020.2,22.4,0000.0,0008.16,0004.26,0003.73
2024-03-14 15:41:00,SystemResetWarning,0831.1,4.99,000.00,018.5,017.7,000.0,027.1,020.1,22.5,0000.0,0008.13,0004.25,0003.74
2024-03-14 15:42:00,SystemResetWarning,0831.1,4.99,000.00,018.4,017.5,000.0,027.1,020.0,22.6,0000.0,0008.10,0004.25,0003.75
2024-03-14 15:43:00,SystemResetWarning,0831.1,5.01,000.00,018.4,017.4,000.0,027.1,020.0,22.9,0000.0,0007.94,0004.26,0003.78
2024-03-14 15:44:00,SystemResetWarning,0831.1,5.01,000.00,018.4,017.3,000.0,027.1,020.0,22.9,0000.0,0007.48,0004.28,0003.80
2024-03-14 15:45:00,SystemResetWarning,0831.2,5.00,000.00,018.3,017.2,000.0,027.1,020.0,22.9,0000.0,0007.51,0004.30,0003.82
2024-03-14 15:46:00,SystemResetWarning,0831.2,4.99,000.00,018.3,017.1,000.0,027.1,020.0,23.0,0000.0,0007.40,0004.29,0003.84
2024-03-14 15:47:00,SystemResetWarning,0831.2,4.98,000.00,018.3,017.1,000.0,027.1,020.0,23.2,0000.0,0007.37,0004.29,0003.86
2024-03-14 15:48:00,SystemResetWarning,0831.2,5.00,000.00,018.3,017.0,000.0,027.1,020.0,23.3,0000.0,0007.44,0004.29,0003.88
2024-03-14 15:49:00,SystemResetWarning,0831.2,5.00,000.00,018.3,017.0,000.0,027.1,020.0,23.4,0000.0,0007.42,0004.28,0003.89
2024-03-14 15:50:00,SystemResetWarning,0831.2,5.01,000.00,018.2,017.0,000.0,027.1,020.0,23.6,0000.0,0007.50,0004.27,0003.90
2024-03-14 15:51:00,SystemResetWarning,0831.3,5.01,000.00,018.2,016.9,000.0,027.1,020.0,23.6,0000.0,0008.22,0004.26,0003.90
2024-03-14 15:52:00,SystemResetWarning,0831.2,5.00,000.00,018.2,016.9,000.0,027.1,020.0,23.7,0000.0,0008.53,0004.26,0003.91
2024-03-14 15:53:00,SystemResetWarning,0831.3,5.00,000.00,018.2,016.9,000.0,027.1,020.0,23.8,0000.0,0008.61,0004.26,0003.92
2024-03-14 15:54:00,SystemResetWarning,0831.3,4.99,000.00,018.2,016.9,000.0,027.1,020.0,23.9,0000.0,0008.56,0004.23,0003.91
2024-03-14 15:55:00,SystemResetWarning,0831.2,5.00,000.00,018.2,016.9,000.0,027.1,020.1,24.0,0000.0,0008.52,0004.21,0003.90
2024-03-14 15:56:00,SystemResetWarning,0831.3,5.01,000.00,018.3,017.8,000.0,027.1,020.4,24.0,0000.0,0008.43,0004.20,0003.90
2024-03-14 15:57:00,SystemResetWarning,0831.3,5.00,000.00,018.6,018.9,000.0,027.2,021.0,23.8,0000.0,0008.49,0004.23,0003.91
2024-03-14 15:58:00,SystemResetWarning,0831.3,4.98,000.00,018.8,019.0,000.0,027.2,021.0,23.6,0000.0,0008.57,0004.25,0003.90
2024-03-14 15:59:00,SystemResetWarning,0831.3,5.00,000.00,018.7,018.7,000.0,027.1,020.8,23.6,0000.0,0008.42,0004.27,0003.91
